Skip Page Navigation
NASA JPL Caltech
NASA Logo - Jet Propulsion Laboratory + View the NASA Portal
+ Center for Near-Earth Object Studies
JPL Home Earth Solar System Stars & Galaxies Technology
JPL Solar System Dynamics
BODIES ORBITS EPHEMERIDES TOOLS PHYSICAL DATA DISCOVERY FAQ SITE MAP
IMPORTANT: The SSD Announcement email list is now available. Major changes are coming in the near future, including possible hostname and/or URL changes. To be notified of such changes, subscribe to this email list.

Please visit this page for more details.


JPL Small-Body Database Browser
Search: [ help ]  
160297 (2003 FV22)
Classification: Main-belt Asteroid          SPK-ID: 2160297
Ephemeris | Orbit Diagram | Orbital Elements | Mission Design | Physical Parameters | Discovery Circumstances | Close-Approach Data ]

[ show orbit diagram ]
Orbital Elements at Epoch 2458600.5 (2019-Apr-27.0) TDB
Reference: JPL 16 (heliocentric ecliptic J2000)
 Element Value Uncertainty (1-sigma)   Units 
e .1526211665518857 5.6858e-08  
a 2.660914350002419 1.8635e-08 au
q 2.254802497810397 1.4876e-07 au
i 3.996166039333982 4.6453e-06 deg
node 93.31078592089561 8.8101e-05 deg
peri 63.35580226620363 8.9547e-05 deg
M 271.3644624147428 1.7142e-05 deg
tp 2458990.846376837068
(2020-May-21.34637684)
7.729e-05 TDB
period 1585.421598263291
4.34
1.6655e-05
4.56e-08
d
yr
n .2270689388831038 2.3854e-09 deg/d
Q 3.067026202194441 2.148e-08 au
  Orbit Determination Parameters
   # obs. used (total)      316  
   data-arc span      6173 days (16.90 yr)  
   first obs. used      2001-11-20  
   last obs. used      2018-10-15  
   planetary ephem.      DE431  
   SB-pert. ephem.      SB431-N16  
   condition code      0  
   norm. resid. RMS      .67057  
   source      ORB  
   producer      Otto Matic  
   solution date      2018-Oct-31 02:55:16  

Additional Information
 Earth MOID = 1.26841 au 
 Jupiter MOID = 1.92901 au 
 T_jup = 3.366 
[ show covariance matrix ]

Ephemeris | Orbit Diagram | Orbital Elements | Mission Design | Physical Parameters | Discovery Circumstances | Close-Approach Data ]

Physical Parameter Table
Parameter Symbol Value Units Sigma Reference Notes
absolute magnitude H 16.4   n/a MPO417853  

160297 (2003 FV22)          Discovered 2003-Mar-22 by NEAT at Haleakala
Reference: 20070730/Numbers.arcLast Updated: 2007-08-06

[ hide close-approach data ]
Close-Approach Data   ...sorted by Date/Time (TDB)
Date/Time (TDB) Time Uncertainty
(days_HH:MM)
Body Nominal Distance (au) Minimum Distance (au) Maximum Distance (au) V-relative (km/s) V-infinity (km/s) JD (TDB) Time Uncertainty (minutes) Semi-major axis (km) Semi-minor axis (km) range-LOV angle (deg) N-sigma BP Orbit Ref. Reference Modified
1926-Dec-24 15:13 00:03 Jupiter 1.9482278401727 1.94822731587688 1.94822836446963 2.13506872418283 1.92067362797155 2424874.134222455 2.66801743540911 169.276800177884 15.1799722281105 -88.4335621452635 2050272.95742688 T 16 CATAB v2.0e-lin.ifort 2018-Oct-31 02:55:23 2018-Dec-17 19:08
1975-Jan-16 11:20 00:01 Jupiter 1.93559558123671 1.93559500108081 1.9355961613924 2.15278233674389 1.93888259159044 2442428.972464564 1.21536379505845 91.8122303550325 12.0596238216527 89.8936485141212 1680325.51874585 T 16 CATAB v2.0e-lin.ifort 2018-Oct-31 02:55:23 2018-Dec-17 19:08
2057-Mar-09 00:52 00:01 Jupiter 1.99125671134643 1.99125601737302 1.99125740532007 2.27964283008269 2.08471335607691 2472431.535912653 1.29253375601687 83.756037358925 11.9590092603969 -88.5502999565081 2051092.98225433 T 16 CATAB v2.0e-lin.ifort 2018-Oct-31 02:55:23 2018-Dec-17 19:08
2105-Apr-01 01:01 00:03 Jupiter 1.93208021463656 1.93207964069889 1.93208078857622 2.09455672066818 1.87359797111515 2489985.542315516 2.75135223965945 191.95156377963 14.9718674099442 -89.3720466367544 1973089.89176585 T 16 CATAB v2.0e-lin.ifort 2018-Oct-31 02:55:23 2018-Dec-17 19:08
2153-Apr-24 08:53 00:04 Jupiter 1.95392136628896 1.95392047888401 1.95392225370114 2.27241642965498 2.07289143052846 2507540.869948499 4.22533696991534 258.568553808781 7.38759082327445 -89.3322390361462 1745566.50542375 T 16 CATAB v2.0e-lin.ifort 2018-Oct-31 02:55:23 2018-Dec-17 19:08
Ephemeris | Orbit Diagram | Orbital Elements | Mission Design | Physical Parameters | Discovery Circumstances | Close-Approach Data ]
ABOUT SSD CREDITS/AWARDS PRIVACY/COPYRIGHT GLOSSARY LINKS
FirstGov 2019-Dec-12 14:11 UT
(server date/time)  
NASA Home Page
Site Manager:   Ryan S. Park
Webmaster  Alan B. Chamberlin